Total_Precipitation_Accumulation
0.27 0.81 1.53 1.33 1.59 1.55 1.48 1.60 1.94 1.88 1.64 1.37 1.72 2.44 1.28 0.84 1.08 1.06 0.79 1.04 1.30 1.28 1.20 1.48 2.23 2.39 1.58 1.13 1.19 1.45 1.44 1.29 1.18 1.55 1.17 0.82 0.54 0.40 0.28 0.24 0.28 0.30 0.36
0.36 0.75 1.04 1.23 1.09 1.17 1.59 1.58 1.51 1.53 1.50 1.35 1.09 0.95 1.46 1.18 1.08 1.20 0.91 0.92 1.04 1.11 1.22 1.01 1.10 1.67 1.96 1.83 1.41 1.44 1.68 1.50 1.44 1.66 1.59 1.38 1.26 0.77 0.44 0.40 0.32 0.32 0.42
0.42 0.47 0.78 1.11 1.10 0.76 0.89 1.32 1.28 1.34 1.66 1.66 1.54 1.17 0.88 0.94 1.76 1.87 1.34 1.03 1.11 1.12 1.17 1.12 1.02 1.18 1.84 1.87 1.50 1.18 1.39 1.79 1.65 1.59 1.91 1.90 1.27 0.85 0.51 0.52 0.56 0.62 0.70
0.41 0.85 0.54 0.51 1.04 1.24 0.76 1.27 1.59 1.44 1.52 1.86 1.77 1.30 1.16 0.83 0.83 1.29 1.19 1.04 1.31 1.29 1.07 1.20 1.22 1.15 1.16 1.48 1.49 1.26 1.16 1.74 1.72 2.21 1.70 1.51 1.64 1.84 1.37 0.87 0.77 0.78 0.71
0.20 0.70 0.89 0.65 0.62 1.33 1.41 1.62 1.76 1.81 1.54 1.61 1.87 1.81 1.37 1.21 1.22 1.67 1.93 1.55 1.43 1.54 1.54 1.43 1.53 1.59 1.72 1.35 1.86 1.83 1.78 2.03 1.85 1.45 1.63 1.84 1.79 2.18 2.36 1.69 1.10 1.24 1.09
0.33 0.45 0.59 0.87 0.88 0.75 1.31 1.95 2.41 2.17 1.80 1.81 1.83 1.86 1.57 1.28 1.38 1.63 2.24 2.59 2.37 2.10 1.86 1.79 1.67 1.55 1.61 1.74 2.00 2.42 2.53 2.58 2.34 1.97 1.87 1.94 1.95 1.64 1.97 2.08 1.46 1.28 1.19
0.29 0.98 0.40 0.60 0.95 1.11 0.87 1.21 2.13 2.35 1.89 1.65 1.61 1.91 2.75 2.55 1.96 1.85 2.36 2.75 3.30 3.24 2.79 2.72 2.31 1.96 1.75 1.77 2.10 2.69 2.98 3.34 3.41 3.19 2.69 2.32 2.14 2.07 2.26 2.37 2.09 1.88 1.47
0.47 0.82 0.96 0.60 1.00 1.25 1.25 1.04 1.38 1.91 2.01 1.76 1.80 1.77 2.24 3.03 3.01 2.21 2.18 3.09 3.19 3.33 3.18 3.48 3.69 3.53 3.14 2.75 2.43 2.51 2.55 2.63 2.91 3.66 4.14 4.15 3.34 3.10 3.21 3.26 3.48 3.32 2.59
0.66 0.65 0.69 0.94 0.92 1.33 1.47 1.17 1.11 1.70 1.61 1.74 1.67 1.78 2.20 2.75 2.65 2.65 2.28 2.68 3.38 3.44 3.25 3.52 3.49 3.79 3.94 3.98 3.80 3.14 2.67 2.52 2.47 2.46 2.70 2.90 2.92 2.95 2.91 3.04 3.35 4.19 3.71
0.62 1.08 0.69 0.65 1.16 1.23 1.79 1.82 1.21 1.14 1.65 1.64 1.66 1.27 1.36 1.98 2.57 3.17 3.83 3.17 3.46 4.93 5.91 5.73 4.70 4.30 4.23 4.55 4.83 4.55 3.95 3.70 3.30 2.98 2.78 2.63 2.44 2.25 2.05 2.18 2.64 3.51 3.91
0.61 0.79 1.33 0.81 1.30 1.59 1.64 2.12 2.15 1.84 1.65 1.70 1.51 1.52 1.55 1.91 2.08 2.50 3.10 3.43 3.92 4.43 4.67 5.21 5.55 5.48 5.22 5.45 5.53 5.53 5.56 5.29 4.90 4.68 4.26 3.31 2.85 2.71 2.76 2.91 3.07 3.23 3.68
0.47 0.57 1.32 1.58 1.47 1.93 2.08 1.96 2.31 2.87 2.27 1.86 1.87 2.25 2.57 2.57 2.48 2.52 2.75 2.78 2.77 2.98 3.24 3.65 3.87 4.14 4.92 5.09 4.83 4.77 4.62 4.31 4.27 4.43 4.30 3.87 3.99 3.82 3.73 3.95 3.77 3.73 3.86
0.49 0.52 0.75 1.15 1.72 1.13 1.92 1.71 1.47 2.42 3.09 3.03 2.75 2.65 2.93 2.85 2.85 2.85 2.63 2.42 2.70 3.04 3.03 3.27 3.63 3.62 3.76 4.23 4.70 4.78 4.67 4.62 4.58 4.35 4.08 3.61 3.84 3.91 4.05 4.30 4.35 4.05 4.06
0.50 0.59 0.58 0.70 0.90 1.22 1.83 3.06 1.68 1.91 2.59 2.86 2.78 2.55 2.83 2.85 2.72 2.49 2.23 1.97 2.03 2.13 2.44 2.50 2.57 2.70 2.98 3.10 3.55 3.89 4.06 3.83 3.77 3.94 3.96 4.07 3.95 3.56 3.31 3.44 3.48 3.51 3.67
0.61 0.61 0.75 0.85 0.86 0.88 0.81 1.36 1.70 2.20 2.59 2.59 2.39 2.77 2.70 2.67 2.51 2.32 1.89 1.66 1.68 1.59 1.56 1.68 1.91 2.04 2.35 2.68 2.71 2.91 3.24 3.34 3.34 3.24 3.21 3.33 3.93 4.00 3.86 3.78 3.69 3.73 3.89
0.90 0.73 0.68 0.91 0.97 0.97 1.09 1.10 1.47 1.81 2.11 2.33 2.74 2.42 2.85 2.88 2.31 2.17 1.92 1.74 1.70 1.60 1.72 1.57 1.73 2.08 2.09 2.70 2.72 2.67 2.83 2.98 3.00 3.15 3.12 3.28 3.71 3.46 3.73 3.55 3.24 3.11 3.35
1.28 1.00 0.91 1.00 1.05 1.01 0.97 0.94 1.18 1.57 1.49 2.07 2.90 2.92 3.25 4.30 3.25 2.23 2.14 2.05 2.28 2.19 2.00 2.15 2.14 2.03 1.96 2.67 2.65 2.77 2.58 2.94 2.96 2.89 2.83 2.93 3.06 3.33 2.91 3.40 3.26 3.03 3.22
1.73 1.78 1.33 1.12 1.07 0.92 1.07 1.37 1.16 1.29 1.44 1.21 1.45 2.51 3.04 3.86 4.70 3.63 2.90 2.98 2.79 2.73 2.35 2.22 2.23 2.14 2.72 2.87 3.14 3.58 3.16 2.76 2.87 3.01 2.83 2.72 2.72 2.97 2.99 2.90 3.08 2.95 2.93
1.83 2.18 1.86 1.38 1.12 1.01 1.21 1.53 1.63 1.30 1.25 1.43 1.09 1.21 2.03 2.88 3.63 4.23 4.16 3.77 3.66 3.27 3.02 2.53 2.33 2.41 2.47 2.52 2.21 2.51 2.62 2.94 3.23 3.14 3.12 3.28 3.15 4.02 3.91 3.42 3.76 3.99 4.20
2.10 2.07 1.90 1.86 1.40 1.49 1.25 1.59 1.65 2.01 1.73 1.65 1.51 1.13 1.33 1.79 2.33 3.11 3.30 3.07 2.76 2.83 2.75 2.81 2.55 2.72 2.47 2.90 2.35 2.11 1.57 1.83 2.12 2.54 2.85 3.78 3.14 3.62 3.36 3.05 3.11 3.86 4.46
2.55 2.06 1.85 2.10 2.08 2.12 1.75 1.72 2.31 2.49 2.59 2.56 2.21 1.85 1.68 1.64 1.82 2.23 2.52 2.45 2.45 2.28 2.15 2.12 2.13 1.99 1.88 2.09 2.21 2.04 1.70 1.82 2.07 2.09 2.15 2.49 3.46 2.87 2.99 3.17 3.04 4.07 4.14
1.76 2.29 2.21 2.28 3.17 2.72 2.70 2.84 2.75 3.27 2.85 2.72 2.43 2.19 1.87 1.79 2.17 2.38 2.60 2.48 2.41 2.35 1.96 1.73 1.72 1.72 1.80 2.14 1.86 1.66 1.70 2.04 1.85 2.23 2.28 2.62 3.08 2.50 2.55 2.81 3.49 3.90 3.82
1.27 1.48 2.16 2.36 2.99 3.29 3.14 3.48 3.47 3.36 3.34 2.89 3.01 2.97 2.69 2.52 2.57 2.81 2.75 2.67 2.57 2.27 2.10 1.82 1.77 1.87 1.81 1.98 2.20 1.94 1.91 1.92 1.79 2.26 3.11 3.46 3.20 2.87 2.90 3.05 3.11 3.17 3.12
0.82 1.02 1.59 1.77 2.29 2.93 3.67 3.17 3.53 3.32 3.82 3.87 3.63 3.66 3.79 3.73 3.32 3.37 3.34 3.29 3.02 2.79 2.54 2.29 2.24 2.14 2.07 1.95 1.88 2.02 2.26 2.49 2.63 3.00 3.05 2.96 2.85 2.74 2.81 2.87 2.83 2.74 2.64
0.55 0.83 1.52 1.54 1.61 1.86 2.65 3.10 2.90 3.05 3.32 3.90 3.85 4.00 3.91 4.04 4.15 4.06 3.97 3.48 3.54 3.23 2.81 2.60 2.41 2.43 2.44 2.53 2.27 2.10 2.13 2.19 2.44 2.54 2.60 2.44 2.20 2.06 2.07 2.01 1.94 1.97 2.07
0.28 0.25 0.34 0.58 0.81 0.84 1.07 1.39 1.94 2.15 2.81 3.47 4.20 4.74 4.92 4.15 3.86 3.80 4.12 4.53 4.49 4.55 4.15 3.89 3.59 3.57 3.38 3.03 2.56 2.13 2.02 2.01 1.97 2.03 2.07 1.92 1.84 1.87 1.90 1.87 1.88 1.92 1.96